Location: Claremont
(33.9858°S, 18.4575°E)
Time: 21:13:41
(UTC+00:00)

Daily predictions for brighter satellites

Satellite Brightness Start Highest point End
(mag) Time Altitude Azimuth Time Altitude Azimuth Time Altitude Azimuth
Cosmos 1536 3.1 17:41:32 10° S 17:45:34 49° E 17:49:31 10° NNE
H-2A R/B 2.6 17:40:48 10° SSE 17:45:37 36° E 17:50:30 10° NNE
CZ-3 Stage 3 3.5 17:43:08 10° NW 17:45:45 40° NNE 17:51:18 10° E
CZ-4 R/B 1.9 17:43:20 10° SSE 17:47:01 34° E 17:50:34 10° NNE
IRS-1C Rocket 4.4 17:44:34 10° SSE 17:49:39 45° E 17:54:41 10° N
Cosmos 1862 Rocket 4.3 17:46:41 10° NNE 17:50:38 33° E 17:54:36 10° SSE
SL-8 Rocket 4.1 17:44:28 10° S 17:50:54 89° W 17:57:14 10° N
ATLAS 3B R/B 3.2 17:46:19 10° SSW 17:52:58 43° SE 17:59:17 10° ENE
Cosmos 1850 Rocket 4.2 17:48:30 10° NNW 17:53:47 80° WSW 17:59:11 10° SSE
Cosmos 1743 3.7 17:51:14 10° SSE 17:54:34 27° ESE 17:57:53 10° NE
RESURS DK-1 4.0 17:53:11 10° NW 17:57:06 39° WSW 18:01:03 10° S
Cosmos 1869 Rocket 3.8 17:53:23 10° S 17:57:47 75° W 18:02:07 10° N
Cosmos 1544 3.8 17:54:44 10° SSE 17:58:02 31° E 18:01:17 10° NE
Nadezhda 3 Rocket 4.3 17:53:44 10° NNE 17:59:42 45° E 18:05:41 10° SSE
SL-8 R/B 4.5 17:56:52 10° NNW 18:01:08 32° NE 18:05:26 10° ESE
Cosmos 2082 3.8 17:56:18 10° NNW 18:01:59 88° WSW 18:07:45 10° SSE
Cosmos 2366 rocket 4.1 17:59:39 10° S 18:05:54 84° W 18:12:09 10° N
Okean-O 2.9 18:02:00 10° SSE 18:06:21 47° E 18:10:39 10° N
Timation 1 Rocket 4.4 18:01:13 10° NNW 18:07:11 90° WSW 18:13:14 10° SSE
ASTEX 1 3.6 18:05:39 10° NNE 18:10:24 50° E 18:15:15 10° S
Cosmos 2098 4.4 18:10:25 10° S 18:13:24 46° E 18:16:22 10° NNE
HJ-1C 3.7 18:11:53 10° SSE 18:15:10 44° E 18:18:24 10° N
SL-24 R/B - RUBIN 2 3.4 18:11:14 10° NNW 18:15:29 86° WSW 18:19:46 10° SSE
BREEZE M DEB (TANK) 2.0 18:13:44 10° WSW 18:15:48 44° NW 18:17:37 15° NNE
Cosmos 1437 4.3 18:13:17 10° NNW 18:16:00 35° W 18:18:45 10° S
Chunghua 1 4.5 18:13:33 10° W 18:17:13 77° S 18:19:36 21° E
Cosmos 2263 Rocket 2.7 18:13:03 10° NNE 18:18:03 34° ENE 18:23:08 10° SE
Cosmos 968 Rocket 4.5 18:14:47 10° NNE 18:18:57 24° E 18:23:07 10° SE
Meteor 1-18 Rocket 4.4 18:13:46 10° N 18:19:21 53° E 18:24:54 10° SSE
Cosmos 1733 Rocket 3.1 18:15:47 10° S 18:20:07 55° E 18:24:22 10° NNE
Cosmos 1515 3.6 18:17:53 10° N 18:21:41 76° E 18:25:32 10° S
Okean 1 3.2 18:17:56 10° N 18:22:00 74° E 18:26:06 10° S
CZ-2C R/B 2.6 18:20:40 10° N 18:22:21 15° NNE 18:22:21 15° NNE
Cosmos 2237 Rocket 3.4 18:20:27 10° SW 18:25:49 44° WNW 18:31:09 10° N
Okean 1-7 4.1 18:25:15 23° ENE 18:26:01 24° E 18:29:31 10° SE
DASH 4.4 18:27:24 10° N 18:28:06 10° N 18:28:37 10° NNE
Cosmos 1821 Rocket 4.0 18:25:29 10° S 18:31:55 66° E 18:38:16 10° NNE
SL-08 RB Rocket 3.7 18:30:27 10° SSE 18:34:54 53° E 18:39:17 10° N
OAO 3 Rocket 3.2 18:31:52 10° W 18:36:46 85° S 18:39:16 29° E
Cosmos 1763 Rocket 4.2 18:34:21 10° SSW 18:39:27 55° WNW 18:44:33 10° N
Lacrosse 5 4.2 18:39:11 10° WSW 18:42:55 20° WNW 18:46:37 10° NNW
GRACE-FO 1 4.4 18:39:58 10° S 18:43:40 81° E 18:46:09 19° N
GRACE-FO 2 4.4 18:40:23 10° S 18:44:05 82° E 18:46:34 19° N
Cosmos 2239 Rocket 4.5 18:38:10 10° S 18:44:31 69° E 18:50:30 12° NNE
SL-16 R/B 2.1 18:39:16 10° SSW 18:44:59 86° ESE 18:49:02 20° NNE
Lacrosse 5 rocket 3.0 18:42:30 10° N 18:43:32 16° N 18:43:32 16° N
ISS -2.8 18:45:56 10° SSW 18:49:08 35° SE 18:49:13 35° SE
CZ-2C R/B 3.9 18:48:45 13° N 18:52:54 72° WNW 18:57:29 10° SSW
Cosmos 1975 2.9 18:49:22 10° S 18:53:20 52° E 18:53:31 51° E
Delta 2 Rocket 2.7 18:49:56 10° W 18:53:28 71° NNW 18:53:38 69° N
Cosmos 44 3.6 18:48:48 10° NW 18:53:38 66° WSW 18:58:13 10° SSE
Cosmos 921 Rocket 3.1 18:49:23 10° SSW 18:53:39 72° WNW 18:55:56 26° N
USA 215 4.5 18:47:44 10° SSE 18:53:49 41° SW 18:59:53 10° WNW
Cosmos 1934 Rocket 4.0 18:49:14 10° S 18:55:20 55° E 18:58:01 32° NE
ATLAS 3B CENTAUR R/B 4.1 18:48:23 10° NNW 18:55:30 20° N 18:56:37 20° NNE
Helios 1A Rocket 3.2 18:53:27 10° S 18:57:39 69° WSW 19:01:45 10° NNW
YAOGAN 1 4.2 18:54:06 10° S 18:58:06 36° WSW 19:02:05 10° NW
Cosmos 1908 Rocket 3.6 18:57:44 10° S 19:02:14 59° E 19:02:35 57° ENE
SJ-6B 4.4 18:58:29 10° SSE 19:00:16 23° SE 19:00:16 23° SE
BREEZE-M DEB (TANK) 4.3 19:05:59 10° SW 19:06:46 11° SSW 19:07:13 11° S
MetOp-A 4.1 19:05:00 10° SSE 19:10:23 63° E 19:12:00 43° NNE
GPS 2-04 Rocket1 2.9 19:08:31 10° WSW 19:11:26 56° WSW 19:11:26 56° WSW
Cosmos 2208 Rocket 4.0 19:07:38 10° SSW 19:13:10 85° ESE 19:14:37 51° NNE
ARGOS 4.2 19:09:17 10° S 19:14:28 46° WSW 19:19:37 10° NW
Meteor 2-9 Rocket 4.4 19:09:18 10° SSW 19:15:08 73° W 19:18:32 25° N
Cosmos 1703 Rocket 3.6 19:14:28 37° NNW 19:16:09 74° W 19:20:33 10° S
Meteor 2-4 Rocket 3.9 19:11:34 10° NNW 19:17:28 76° W 19:23:20 10° S
COSMOS 2455 3.4 19:17:02 10° NW 19:22:56 59° WSW 19:28:55 10° SSE
USA 267 3.9 19:21:22 36° ESE 19:22:58 41° SE 19:29:03 10° SSW
H-2A R/B 4.4 19:20:45 10° SSW 19:24:47 23° WSW 19:28:53 10° WNW
Cosmos 1605 Rocket 3.9 19:22:45 10° S 19:29:02 66° E 19:29:31 64° ENE
Cosmos 1340 Rocket 3.8 19:30:08 10° SSW 19:34:05 44° W 19:34:05 44° W
OAO 2 Rocket 4.3 19:29:22 10° NW 19:32:51 38° NNW 19:32:51 38° NNW
ATLAS 3B R/B 4.1 19:37:29 10° SW 19:43:23 31° WNW 19:46:58 19° NNW
Cosmos 1603 4.0 19:47:13 10° SSW 19:51:45 58° S 19:51:45 58° S
Cosmos 1943 3.7 19:53:32 10° SSW 19:58:00 55° S 19:58:00 55° S
Ariane Rocket 4.0 19:56:16 10° S 19:59:38 40° S 19:59:38 40° S
Cosmos 2263 Rocket 4.1 19:57:09 10° WNW 20:01:57 28° WSW 20:06:47 10° S
BREEZE M DEB (TANK) 4.4 20:00:20 10° SW 20:08:33 53° SSW 20:08:33 53° SSW
